TimeAEST,TemperatureF,Dew PointF,Humidity,Sea Level PressureIn,VisibilityMPH,Wind Direction,Wind SpeedMPH,Gust SpeedMPH,PrecipitationIn,Events,Conditions,WindDirDegrees,DateUTC
12:00 AM,73,65,68,29.95,,SSE,6.9,,,,,160,2012-11-15 14:00:00
12:00 AM,73.4,64.4,73,29.95,6.2,SSE,6.9,-,N/A,,Partly Cloudy,160,2012-11-15 14:00:00
12:30 AM,73.4,64.4,73,29.92,6.2,South,6.9,-,N/A,,Partly Cloudy,170,2012-11-15 14:30:00
1:00 AM,74,64,65,29.94,,South,6.9,,,,,180,2012-11-15 15:00:00
1:00 AM,73.4,64.4,73,29.92,6.2,South,6.9,-,N/A,,Partly Cloudy,180,2012-11-15 15:00:00
1:30 AM,73.4,64.4,73,29.92,6.2,SSE,6.9,-,N/A,,Partly Cloudy,150,2012-11-15 15:30:00
2:00 AM,69.8,66.2,88,29.89,6.2,SE,8.1,-,N/A,,Partly Cloudy,130,2012-11-15 16:00:00
2:30 AM,69.8,66.2,88,29.89,6.2,SE,6.9,-,N/A,,Partly Cloudy,130,2012-11-15 16:30:00
3:00 AM,71,65,76,29.89,,SSE,2.3,,,,,150,2012-11-15 17:00:00
3:00 AM,71.6,64.4,78,29.89,6.2,SSE,2.3,-,N/A,,Partly Cloudy,150,2012-11-15 17:00:00
3:30 AM,69.8,64.4,83,29.89,6.2,SE,10.4,-,N/A,,Partly Cloudy,130,2012-11-15 17:30:00
4:00 AM,70,64,77,29.90,,SE,10.4,,,,,130,2012-11-15 18:00:00
4:00 AM,69.8,64.4,83,29.89,6.2,SE,10.4,-,N/A,,Partly Cloudy,130,2012-11-15 18:00:00
4:30 AM,69.8,64.4,83,29.89,6.2,SE,8.1,-,N/A,,Partly Cloudy,140,2012-11-15 18:30:00
5:00 AM,69.8,64.4,83,29.89,6.2,South,4.6,-,N/A,,Partly Cloudy,190,2012-11-15 19:00:00
5:30 AM,69.8,64.4,83,29.89,6.2,South,2.3,-,N/A,,Partly Cloudy,170,2012-11-15 19:30:00
6:00 AM,69,64,80,29.91,19,South,5.8,,,,Partly Cloudy,170,2012-11-15 20:00:00
6:00 AM,69.8,64.4,83,29.89,6.2,South,5.8,-,N/A,,Partly Cloudy,170,2012-11-15 20:00:00
6:30 AM,71.6,64.4,78,29.92,6.2,SSE,10.4,-,N/A,,Partly Cloudy,150,2012-11-15 20:30:00
7:00 AM,72,64,69,29.94,,SE,11.5,,,,,140,2012-11-15 21:00:00
7:00 AM,73.4,64.4,73,29.92,6.2,SE,11.5,-,N/A,,Partly Cloudy,140,2012-11-15 21:00:00
7:30 AM,75.2,64.4,69,29.92,6.2,SE,9.2,-,N/A,,Partly Cloudy,130,2012-11-15 21:30:00
8:00 AM,77.0,64.4,65,29.92,6.2,SSE,9.2,-,N/A,,Partly Cloudy,150,2012-11-15 22:00:00
8:30 AM,80.6,66.2,61,29.95,6.2,South,8.1,-,N/A,,Scattered Clouds,170,2012-11-15 22:30:00
9:00 AM,82,67,52,29.94,19,South,8.1,,,,Partly Cloudy,170,2012-11-15 23:00:00
9:00 AM,82.4,68.0,62,29.92,6.2,South,8.1,-,N/A,,Partly Cloudy,170,2012-11-15 23:00:00
9:30 AM,82.4,68.0,62,29.92,6.2,SSE,6.9,-,N/A,,Partly Cloudy,160,2012-11-15 23:30:00
10:00 AM,83,68,51,29.94,,ESE,8.1,,,,,120,2012-11-16 00:00:00
10:00 AM,84.2,68.0,58,29.92,6.2,ESE,8.1,-,N/A,,Scattered Clouds,120,2012-11-16 00:00:00
10:30 AM,84.2,68.0,58,29.92,6.2,ENE,10.4,-,N/A,,Scattered Clouds,60,2012-11-16 00:30:00
11:00 AM,82.4,69.8,66,29.92,6.2,ENE,11.5,-,N/A,,Partly Cloudy,70,2012-11-16 01:00:00
11:30 AM,84.2,69.8,62,29.92,6.2,NE,10.4,-,N/A,,Partly Cloudy,40,2012-11-16 01:30:00
12:00 PM,84,70,53,29.91,19,ENE,10.4,,,,Partly Cloudy,60,2012-11-16 02:00:00
12:00 PM,84.2,69.8,62,29.89,6.2,ENE,10.4,-,N/A,,Partly Cloudy,60,2012-11-16 02:00:00
12:30 PM,84.2,69.8,62,29.89,6.2,NE,10.4,-,N/A,,Scattered Clouds,50,2012-11-16 02:30:00
1:00 PM,84,70,55,29.89,,NE,10.4,,,,,40,2012-11-16 03:00:00
1:00 PM,84.2,69.8,62,29.89,6.2,NE,10.4,-,N/A,,Partly Cloudy,40,2012-11-16 03:00:00
1:30 PM,84.2,69.8,62,29.86,6.2,NNE,11.5,-,N/A,,Partly Cloudy,20,2012-11-16 03:30:00
2:00 PM,84.2,69.8,62,29.86,6.2,NE,10.4,-,N/A,,Partly Cloudy,50,2012-11-16 04:00:00
2:30 PM,84.2,69.8,62,29.83,6.2,NNE,10.4,-,N/A,,Partly Cloudy,30,2012-11-16 04:30:00
3:00 PM,83,70,56,29.84,19,NNE,10.4,,,,Partly Cloudy,30,2012-11-16 05:00:00
3:00 PM,82.4,69.8,66,29.83,6.2,NNE,10.4,-,N/A,,Partly Cloudy,30,2012-11-16 05:00:00
3:30 PM,82.4,69.8,66,29.83,6.2,NNE,10.4,-,N/A,,Scattered Clouds,20,2012-11-16 05:30:00
4:00 PM,82,69,57,29.83,,NNE,9.2,,,,,20,2012-11-16 06:00:00
4:00 PM,82.4,69.8,66,29.80,6.2,NNE,9.2,-,N/A,,Partly Cloudy,20,2012-11-16 06:00:00
4:30 PM,80.6,69.8,70,29.80,6.2,NE,8.1,-,N/A,,Partly Cloudy,50,2012-11-16 06:30:00
5:00 PM,80.6,69.8,70,29.80,6.2,NNE,8.1,-,N/A,,Partly Cloudy,30,2012-11-16 07:00:00
5:30 PM,80.6,69.8,70,29.80,6.2,NE,6.9,-,N/A,,Scattered Clouds,40,2012-11-16 07:30:00
6:00 PM,79,70,67,29.83,,NE,6.9,,,,,40,2012-11-16 08:00:00
6:00 PM,78.8,69.8,74,29.83,6.2,NE,6.9,-,N/A,,Mostly Cloudy,40,2012-11-16 08:00:00
6:30 PM,78.8,69.8,74,29.83,6.2,NE,5.8,-,N/A,,Mostly Cloudy,50,2012-11-16 08:30:00
7:00 PM,79,70,67,29.84,,NE,6.9,,,,,50,2012-11-16 09:00:00
7:00 PM,78.8,69.8,74,29.83,6.2,NE,6.9,-,N/A,,Mostly Cloudy,50,2012-11-16 09:00:00
7:30 PM,78.8,69.8,74,29.83,6.2,NE,4.6,-,N/A,,Mostly Cloudy,50,2012-11-16 09:30:00
8:00 PM,78.8,69.8,74,29.86,6.2,NE,5.8,-,N/A,,Mostly Cloudy,50,2012-11-16 10:00:00
8:30 PM,78.8,69.8,74,29.86,6.2,NE,5.8,-,N/A,,Overcast,40,2012-11-16 10:30:00
9:00 PM,79,70,67,29.88,,NNE,6.9,,,,Overcast,30,2012-11-16 11:00:00
9:00 PM,78.8,69.8,74,29.86,6.2,NNE,6.9,-,N/A,,Overcast,30,2012-11-16 11:00:00
9:30 PM,78.8,69.8,74,29.89,6.2,NNE,5.8,-,N/A,,Mostly Cloudy,30,2012-11-16 11:30:00
10:00 PM,78,70,69,29.91,,NNE,4.6,,,,,30,2012-11-16 12:00:00
10:00 PM,78.8,69.8,74,29.89,6.2,NNE,4.6,-,N/A,,Mostly Cloudy,30,2012-11-16 12:00:00
10:30 PM,77.0,69.8,78,29.89,6.2,NNE,4.6,-,N/A,,Scattered Clouds,30,2012-11-16 12:30:00
11:00 PM,77.0,69.8,78,29.89,6.2,NE,4.6,-,N/A,,Scattered Clouds,40,2012-11-16 13:00:00
11:30 PM,77.0,69.8,78,29.89,6.2,NNE,4.6,-,N/A,,Scattered Clouds,20,2012-11-16 13:30:00